Theta_e
304 304 303 303 303 303 302 303 303 303 302 302 302 303 303 303 303 303 303 302 302 302 303 303 303 303 303 303 303 303 303 303 302 302 301 301 301 300 299 299 298 298 297 295 294 294 294 294 294 294 294 294 294 294 294 294 294 294 294 294 294 294 293 292 292 291 291 291 291 291 291 290 290 290 289 289 289 288 288 288 288 289 289 290 290
303 303 303 303 303 303 303 303 303 303 302 301 301 302 302 302 302 302 302 301 301 302 301 301 302 302 302 302 302 302 303 302 302 302 302 301 301 300 300 300 299 298 297 296 295 294 294 293 293 293 293 293 294 294 294 294 294 294 294 294 294 294 293 293 292 292 291 291 291 291 291 290 290 289 289 289 288 288 288 287 288 288 289 290 290
301 302 302 303 303 303 303 304 304 303 303 302 302 302 301 301 301 300 300 300 300 300 300 300 300 300 300 301 301 301 301 301 302 302 302 301 301 301 300 300 300 299 298 297 296 294 293 293 293 293 293 293 293 293 294 294 294 294 294 294 294 294 293 292 292 292 292 291 290 290 290 290 289 289 289 289 289 289 289 288 288 289 289 289 289
298 299 301 302 302 302 303 303 304 304 304 304 303 303 302 302 301 300 300 300 300 299 299 299 299 299 299 299 299 300 300 300 301 301 301 301 301 301 300 300 299 299 298 298 297 296 294 294 293 293 293 293 293 293 293 294 294 294 294 294 294 293 293 292 292 292 291 291 290 290 290 289 289 289 289 289 289 290 290 289 289 289 289 289 289
295 296 298 300 301 302 302 302 303 303 303 303 304 304 304 303 301 300 299 299 299 299 299 298 298 298 298 299 299 299 299 299 300 300 300 300 300 300 300 300 299 299 298 298 297 297 296 295 294 293 293 293 293 293 293 293 294 294 293 293 294 293 293 292 292 292 291 291 290 290 290 289 289 289 289 289 289 289 290 290 290 290 290 289 289
295 294 295 296 298 300 301 301 301 301 302 302 302 303 303 303 303 301 299 299 298 298 297 298 298 298 298 298 298 298 298 298 299 299 299 299 300 300 300 299 299 298 298 298 298 297 296 295 294 293 293 293 293 293 293 293 293 294 293 293 293 293 293 292 292 291 291 290 290 290 290 290 289 289 289 289 289 289 289 289 289 289 289 289 289
294 294 294 294 294 296 297 299 299 300 301 301 301 301 301 301 301 301 300 299 298 297 296 297 297 298 298 297 297 297 297 297 298 298 298 298 298 299 299 299 299 298 298 297 297 297 297 296 295 294 293 293 293 293 293 293 293 293 293 293 293 293 292 292 291 291 291 290 290 290 289 289 289 289 288 288 288 288 289 289 289 289 289 289 289
292 293 293 293 293 293 294 295 296 298 299 299 300 300 300 300 300 300 300 299 297 296 296 296 296 297 297 296 296 296 296 297 297 297 297 297 297 297 298 298 298 298 298 297 297 297 296 296 295 294 294 293 293 293 293 293 293 293 293 293 293 293 292 292 291 291 290 290 289 289 289 289 288 288 288 288 288 288 288 288 288 288 288 288 287
291 291 291 292 292 292 292 293 293 294 296 298 299 299 299 300 299 299 298 298 298 296 295 295 295 295 295 295 295 295 295 296 296 296 296 296 296 296 296 297 297 297 297 297 297 296 296 296 295 294 293 293 292 292 292 292 293 293 293 293 293 292 292 291 291 291 290 289 289 289 288 288 288 288 287 287 287 287 287 287 287 287 287 287 286
290 291 291 291 291 291 292 292 292 293 293 295 296 297 298 299 299 298 298 297 297 296 295 295 294 294 294 294 294 294 295 295 296 296 296 296 295 295 296 296 296 297 297 296 296 296 296 295 295 293 292 291 291 291 291 292 292 292 292 293 293 292 292 291 291 291 290 289 289 288 288 288 288 287 287 286 286 287 287 287 286 286 285 285 285
289 289 289 289 290 290 290 291 292 292 292 293 293 295 296 297 297 298 298 297 296 295 295 294 293 293 292 293 293 293 294 294 294 295 295 295 294 294 295 295 295 295 296 296 296 296 296 295 295 293 292 291 290 290 290 291 291 291 291 291 291 291 291 291 291 290 290 289 288 288 288 288 288 287 286 286 286 287 286 286 286 285 284 284 285
288 288 288 288 289 289 289 289 290 290 291 292 292 292 293 294 296 297 297 297 297 296 295 294 293 292 292 292 292 292 293 293 293 294 294 294 294 294 293 294 294 294 295 295 295 295 295 295 294 294 293 292 290 289 289 290 290 290 290 290 289 289 289 289 290 290 289 289 288 288 288 288 287 286 286 286 287 286 286 286 286 285 284 284 285
287 287 287 287 287 287 288 288 288 289 289 290 291 291 291 292 293 294 295 296 297 297 296 294 293 292 291 291 291 291 292 292 292 292 292 293 293 293 293 293 293 293 294 294 294 295 295 294 294 293 293 292 290 289 289 289 289 289 289 288 288 288 288 288 288 288 288 288 287 287 287 287 287 286 286 286 286 286 286 286 285 285 284 284 284
287 287 287 286 286 286 287 287 287 287 287 288 288 289 290 291 291 292 293 294 295 296 297 296 294 293 291 291 291 291 291 291 291 291 291 291 292 291 292 292 292 292 293 293 293 294 294 294 293 293 293 292 291 290 289 288 288 288 288 287 287 287 287 287 287 287 287 287 287 287 287 287 286 286 286 286 286 286 285 285 285 285 284 284 284
286 286 286 286 286 286 286 286 286 286 286 287 287 287 288 289 290 291 291 292 293 294 295 296 296 295 292 290 290 290 290 290 290 290 290 290 290 290 291 291 291 292 292 292 292 292 293 293 293 292 292 292 291 290 289 288 288 288 288 288 287 287 287 287 287 287 287 287 286 286 286 286 286 285 285 286 285 285 284 284 285 284 283 283 283
286 286 286 286 286 285 285 285 285 285 285 286 286 286 286 287 288 289 290 291 291 292 293 294 295 296 295 293 290 290 290 289 289 290 290 290 289 289 289 290 290 291 291 291 291 291 292 292 292 291 291 291 290 289 289 288 288 288 288 288 288 287 287 287 287 287 286 286 286 286 286 285 285 285 285 284 284 284 284 284 284 282 281 282 282
285 285 285 285 285 285 285 285 285 285 285 285 285 285 285 285 286 286 287 289 290 291 291 292 293 295 296 295 293 291 290 289 289 289 289 289 289 289 288 289 289 290 290 290 290 290 290 290 290 290 290 289 289 288 288 287 287 287 287 287 287 287 287 287 287 285 285 285 285 285 284 285 285 284 283 283 283 284 284 284 282 281 280 281 281
285 285 285 285 285 285 285 285 285 285 285 285 285 285 285 285 285 285 286 286 287 289 290 291 291 292 294 295 295 293 291 289 288 288 288 288 288 288 288 288 288 289 289 289 289 289 289 289 289 289 289 288 288 287 287 286 286 287 287 287 287 287 287 287 286 285 285 284 284 284 284 284 283 282 282 283 283 283 283 282 281 280 280 280 280
285 285 285 285 285 285 285 285 285 285 285 285 285 285 285 285 285 285 285 285 286 287 288 289 291 291 292 293 294 295 294 291 288 287 287 287 287 287 287 287 288 288 288 288 288 288 288 288 288 288 287 287 287 286 286 286 286 286 287 287 287 287 287 286 286 285 285 284 284 284 283 283 282 282 282 282 282 281 281 280 280 280 280 280 279
284 284 284 284 284 284 284 284 284 284 284 284 284 285 285 285 285 285 285 285 285 285 286 287 289 290 291 292 293 294 295 293 291 288 287 287 287 287 287 287 287 287 287 287 288 288 288 287 287 286 286 286 285 285 285 285 285 286 286 287 288 287 287 286 285 284 284 284 284 284 283 283 283 283 282 281 280 280 280 280 280 280 279 279 279
283 283 283 284 284 284 284 284 284 284 284 284 284 284 284 284 285 285 285 285 284 285 285 286 287 288 290 291 292 292 294 294 293 291 288 287 286 286 286 286 287 287 287 287 287 287 287 287 286 286 285 285 285 284 284 284 284 285 286 286 287 286 285 285 284 284 283 283 283 283 283 282 282 282 281 280 279 279 279 279 279 279 279 279 279
283 283 283 283 283 284 284 284 284 284 284 284 284 284 284 284 284 284 285 285 284 285 285 285 286 287 288 289 290 291 292 293 294 293 291 288 287 286 286 286 286 287 287 287 287 287 286 286 286 286 285 285 285 285 284 284 284 285 285 285 285 284 284 284 283 283 283 283 283 282 282 282 282 281 280 279 279 279 279 279 279 279 278 278 278
282 282 283 283 283 283 283 283 284 284 284 284 284 284 284 284 284 284 284 284 284 284 285 285 285 286 287 288 289 290 292 292 293 294 293 291 288 287 286 286 286 286 286 286 287 287 286 286 286 285 285 285 285 285 284 283 283 284 284 284 283 283 283 283 282 282 283 283 282 282 281 281 281 280 279 279 279 278 278 278 278 278 278 278 277
282 282 283 283 283 283 283 283 283 283 284 284 284 284 284 284 284 284 284 284 284 284 284 284 284 285 286 287 288 289 291 291 292 293 293 293 290 287 286 285 285 285 285 286 286 286 286 286 286 285 285 285 285 284 283 282 282 283 283 283 282 283 283 282 281 282 282 282 282 282 281 280 280 279 279 279 278 278 278 278 278 278 278 277 277
281 282 282 282 283 283 283 283 283 283 283 283 283 283 284 284 284 284 283 284 284 284 284 284 284 284 285 286 287 288 289 290 292 293 293 293 292 288 285 284 285 285 285 285 285 285 285 285 285 286 286 285 284 283 282 282 282 282 282 282 282 282 281 281 281 282 282 282 282 281 280 279 279 279 279 278 277 278 278 278 278 278 277 277 277
280 281 281 282 282 282 282 282 283 283 283 283 282 283 283 283 283 283 283 283 283 284 284 284 284 284 284 285 286 286 287 288 290 292 293 293 292 289 286 284 284 285 285 285 285 285 284 284 284 284 284 284 283 282 282 282 282 282 281 281 281 280 280 281 281 282 282 282 281 280 279 279 279 278 278 278 277 277 278 277 277 277 277 277 277
278 279 280 281 281 281 281 281 282 282 282 282 282 282 282 282 282 282 282 283 283 283 283 283 283 283 284 284 285 285 286 287 289 291 293 293 292 290 287 285 284 284 284 285 285 285 284 284 283 283 282 282 282 282 281 281 282 281 281 281 281 280 281 282 282 282 282 281 280 280 279 279 278 278 277 277 277 277 277 277 277 277 277 277 277
275 277 278 279 279 279 279 279 279 280 280 280 280 281 281 281 281 281 282 282 282 282 282 282 282 283 283 283 284 284 285 287 288 289 292 292 292 290 288 285 284 284 284 284 284 284 284 284 283 282 281 281 281 281 281 281 281 281 281 281 281 282 282 282 282 282 281 281 280 280 279 278 278 277 277 277 277 277 277 277 277 277 277 277 277
273 274 276 276 276 277 276 276 276 276 277 278 279 279 280 279 279 280 281 282 281 281 280 281 282 282 282 282 283 283 285 286 287 288 290 290 289 289 288 286 284 284 284 284 284 284 284 283 282 280 280 280 280 280 280 280 281 281 281 281 281 282 282 282 282 282 282 281 281 280 279 278 277 277 277 277 277 276 276 276 276 276 277 277 277
270 272 273 273 273 273 273 273 273 273 273 274 275 277 279 279 278 278 280 281 281 280 279 280 281 282 281 282 282 283 284 285 286 287 288 288 287 287 287 286 284 283 283 283 283 283 283 282 281 280 280 280 280 280 280 280 280 281 280 280 280 281 281 282 282 282 281 281 280 279 278 277 276 276 276 276 276 276 276 276 276 276 276 276 276
267 269 270 270 270 270 270 270 270 271 271 272 272 273 275 277 278 278 278 279 279 279 279 279 280 281 281 282 282 283 284 284 285 285 287 287 286 286 286 286 284 283 283 283 282 282 283 282 281 280 280 280 280 280 280 280 280 280 280 280 280 280 281 281 281 280 280 279 278 278 277 276 276 276 276 276 275 275 275 275 275 276 276 276 276
265 267 267 267 267 266 266 266 267 267 268 269 269 270 271 273 276 277 277 277 277 278 278 279 279 280 281 282 282 282 283 283 284 284 285 286 286 286 286 286 284 283 283 283 282 282 282 282 281 281 280 279 279 280 280 280 280 280 280 280 280 280 281 281 280 279 279 278 278 277 276 276 275 275 275 275 275 275 275 275 275 275 275 276 276
263 264 264 264 264 263 263 264 264 265 265 266 267 269 270 271 273 275 275 276 276 277 278 278 279 281 281 282 282 283 283 283 283 283 284 285 285 285 285 285 285 283 282 282 282 282 281 281 281 281 280 280 280 280 280 280 280 280 280 280 281 281 281 280 279 278 278 277 277 276 276 275 275 275 275 275 275 275 275 275 275 275 275 275 275
262 262 262 262 262 262 262 263 263 264 265 265 267 268 269 271 272 272 273 274 274 275 276 277 278 279 281 282 282 283 283 283 283 283 283 284 284 284 284 283 284 283 283 282 282 281 281 281 281 281 281 281 280 280 279 279 280 280 280 280 281 281 280 279 278 278 277 277 276 276 275 274 274 274 274 275 275 275 275 275 275 275 275 275 275
262 262 262 262 262 262 262 263 263 263 263 264 265 266 267 268 269 270 270 271 271 273 274 275 277 278 279 280 281 282 283 283 283 283 283 283 283 282 282 282 282 283 283 282 281 281 281 280 280 281 281 281 281 280 280 279 279 280 280 280 280 280 279 278 278 277 277 276 276 275 274 274 274 274 274 274 274 274 274 274 274 275 275 274 274
261 262 262 262 262 262 262 262 262 263 263 263 264 264 265 266 267 268 268 269 270 271 273 274 276 277 279 279 281 282 282 283 283 283 282 282 282 281 281 281 282 282 282 282 282 281 281 280 281 281 281 281 281 281 280 280 280 280 280 280 280 279 278 278 277 276 276 276 275 274 274 274 274 274 274 274 274 274 274 274 274 274 274 274 274
261 261 261 261 261 261 262 262 262 263 263 264 264 265 266 266 267 267 268 268 269 271 272 273 275 277 278 279 280 281 282 282 283 283 282 282 281 281 281 281 282 282 282 282 281 281 280 280 281 281 281 281 281 281 281 280 280 280 280 279 278 278 277 277 276 276 275 275 274 274 274 274 274 274 274 274 274 274 274 274 274 273 273 273 273
261 261 261 261 261 261 262 262 263 263 263 264 265 266 267 267 268 268 269 269 270 271 272 273 275 276 277 279 280 281 282 282 282 282 282 281 281 281 281 281 281 282 282 282 281 280 280 280 280 280 281 281 281 281 281 280 279 279 279 278 277 277 276 276 275 275 275 274 274 274 274 274 274 274 274 274 274 273 273 273 273 273 273 273 273
261 261 262 262 262 262 262 262 262 263 263 264 265 266 266 267 268 269 270 271 272 273 274 275 275 276 277 278 279 280 280 281 281 282 282 281 281 281 281 281 281 282 282 282 281 280 280 280 280 280 280 281 281 281 281 280 279 278 278 277 276 276 275 275 275 275 274 274 274 274 274 274 274 274 273 273 273 273 273 273 273 272 272 272 272
261 262 262 262 262 262 262 262 262 263 263 264 264 265 266 267 267 269 270 271 272 273 274 275 276 276 277 278 279 279 279 280 280 281 281 281 280 280 280 281 281 281 282 282 281 280 279 279 280 280 280 280 281 281 280 279 278 277 277 276 276 276 275 275 275 274 274 274 274 274 274 273 273 273 273 273 273 273 273 273 273 272 272 271 271
262 262 263 263 263 262 262 262 263 263 264 264 264 264 265 265 266 267 268 269 270 272 273 275 276 277 277 278 278 279 279 279 280 280 281 281 280 280 280 280 281 281 281 281 281 280 279 279 280 280 280 280 280 280 279 278 277 277 276 276 275 275 275 274 274 274 274 274 274 274 273 273 273 273 273 273 273 273 273 272 272 272 271 270 270
262 263 263 264 264 264 263 264 264 264 264 264 264 264 265 265 266 266 267 268 270 271 272 273 275 276 277 278 278 278 278 279 279 280 280 280 280 280 279 280 280 281 281 281 280 280 279 280 280 279 280 280 279 278 278 277 277 276 276 275 275 274 274 274 274 274 274 274 273 273 273 273 273 273 273 273 272 272 272 272 271 271 270 270 270
263 264 264 265 265 265 265 265 265 265 265 265 265 266 266 266 266 266 267 268 270 271 272 273 274 275 276 277 277 278 278 279 279 279 280 280 280 279 279 279 280 280 280 280 280 280 280 280 279 279 279 279 279 278 278 277 276 276 275 275 274 274 274 274 274 274 274 273 273 273 273 273 273 273 273 272 272 272 272 271 271 270 270 270 269
264 264 265 265 265 265 265 266 266 266 266 266 267 267 267 267 267 267 268 270 271 272 273 273 274 275 276 277 277 277 278 279 279 279 279 279 279 279 279 279 280 280 280 280 280 280 280 279 279 279 278 277 277 277 276 276 275 275 275 274 274 274 273 273 273 273 273 273 273 273 273 273 273 272 272 272 272 271 271 271 270 270 270 269 268
264 265 265 266 266 266 266 266 267 267 267 267 267 268 268 268 268 269 270 271 272 273 273 274 275 275 276 276 276 277 278 278 279 279 279 279 279 279 279 279 279 279 279 279 279 279 279 279 278 278 277 276 275 275 275 275 274 274 274 274 273 273 273 273 273 273 273 273 273 273 273 272 272 272 272 272 271 271 270 270 270 270 269 268 268
265 265 266 266 266 267 267 267 268 268 269 269 269 269 269 269 270 270 271 272 273 273 274 275 275 275 276 276 276 277 277 278 279 279 278 278 278 278 278 279 279 279 279 279 279 278 278 278 278 277 277 276 275 275 274 274 274 273 273 273 272 272 273 273 273 273 273 273 273 272 272 272 272 272 271 271 271 270 270 269 269 269 269 268 267
266 266 266 266 267 267 268 268 269 269 270 270 270 270 270 271 271 272 272 273 273 274 274 275 275 275 275 276 276 277 277 278 278 278 278 278 278 278 278 278 278 278 278 278 278 277 277 277 276 276 276 275 274 274 274 273 273 273 272 272 272 272 272 272 272 272 272 272 272 272 272 272 272 271 271 271 270 269 269 269 269 269 268 267 267
266 266 267 267 268 268 268 269 269 270 270 271 271 271 271 272 272 272 273 273 274 274 274 275 275 275 275 276 276 276 277 277 278 278 278 277 277 277 277 277 277 277 277 277 276 276 276 275 275 274 274 274 273 273 273 272 272 272 272 272 272 272 272 272 272 272 272 272 272 272 272 271 271 271 270 270 269 269 269 269 269 268 267 267 267
266 267 267 267 268 268 268 269 269 270 270 271 271 272 272 272 272 273 273 273 274 274 274 274 275 275 275 276 276 276 277 277 277 277 277 277 276 276 276 277 277 277 277 277 276 275 275 274 273 273 273 272 272 272 272 272 272 271 271 272 272 272 272 272 272 272 272 272 272 271 271 271 271 270 270 269 269 269 269 268 268 267 267 267 267
267 267 267 267 268 268 268 269 269 270 270 271 271 271 272 272 272 273 273 273 273 274 274 274 275 275 275 275 276 276 276 277 277 277 276 276 276 275 276 276 276 276 276 276 275 274 273 273 273 272 272 272 272 271 271 271 271 271 271 271 272 272 272 272 272 271 271 271 271 271 271 270 270 270 269 269 269 269 268 267 267 267 267 267 267
268 267 267 267 268 268 268 269 269 269 270 270 271 271 271 272 272 272 272 273 273 273 274 274 274 274 275 275 275 275 276 276 276 276 275 275 275 275 275 275 275 275 275 274 273 272 272 272 272 272 271 271 271 271 271 271 271 271 271 271 271 271 271 271 271 271 271 271 270 270 270 270 269 269 269 269 268 267 267 267 267 267 267 267 267
Wind_Speed
25 25 23 22 19 15 12 12 14 17 20 23 26 29 30 32 33 34 36 38 39 40 42 43 43 43 43 43 43 43 44 44 45 47 49 51 51 52 53 53 53 53 52 52 53 52 52 52 50 48 47 45 44 41 39 36 34 32 30 29 28 26 25 23 20 20 20 20 19 19 19 19 19 19 17 14 14 14 14 14 15 16 17 17 17
25 25 25 24 23 21 18 15 15 16 18 21 24 26 28 30 32 34 36 37 38 39 41 42 43 44 45 45 45 45 45 45 45 46 48 49 51 52 53 54 54 54 54 54 54 54 54 53 52 50 49 47 45 43 41 38 36 34 33 32 30 28 26 24 21 20 21 22 21 21 21 20 19 19 19 16 14 15 14 15 16 17 18 18 17
25 25 25 25 25 23 22 20 19 19 20 20 22 23 25 27 28 31 34 35 36 37 39 40 42 43 45 46 47 47 47 46 46 46 47 49 50 52 54 54 55 55 56 56 55 55 55 55 54 52 51 49 48 45 43 40 38 37 36 33 31 29 27 26 23 22 21 22 23 22 22 21 20 20 21 19 17 17 16 17 18 18 19 19 17
27 26 26 25 25 25 23 22 21 21 22 22 22 22 23 23 24 26 28 30 33 34 36 38 40 42 44 46 47 48 48 48 47 47 48 49 50 52 54 55 56 56 57 56 56 56 56 56 56 54 53 52 50 47 45 43 42 40 38 35 33 31 29 27 25 23 22 23 24 24 22 22 22 22 22 22 20 20 19 19 20 20 20 19 18
29 29 28 27 26 26 25 25 24 23 22 23 23 24 24 23 23 23 25 27 29 31 33 36 38 41 42 44 45 47 49 49 49 49 49 50 50 52 53 55 56 57 57 56 56 56 56 57 56 55 55 53 52 50 48 46 45 42 40 37 35 32 31 29 27 26 25 24 25 25 23 23 24 24 23 23 22 21 21 21 22 22 21 20 19
30 30 29 29 27 26 26 26 26 26 25 24 24 24 25 26 26 25 25 26 28 31 33 34 36 39 41 42 43 46 48 49 50 50 51 51 51 52 53 55 56 57 57 57 57 56 57 57 56 56 56 55 54 52 50 48 47 45 42 39 37 34 33 31 30 29 27 26 26 26 26 26 25 24 24 24 22 21 22 23 22 22 22 20 19
31 30 30 30 29 27 27 26 27 27 27 27 27 25 25 26 27 27 27 27 28 30 32 34 36 38 39 41 42 44 47 48 50 51 52 52 52 52 54 56 57 57 57 57 57 57 57 57 57 57 57 56 55 53 51 50 49 46 44 41 38 37 35 33 32 30 29 28 27 26 26 27 26 25 24 24 22 22 23 24 22 21 21 21 19
32 32 31 30 30 29 28 27 26 26 26 27 27 27 27 26 27 28 28 28 28 28 30 32 34 37 38 40 41 43 46 48 50 51 52 53 53 53 54 56 57 57 57 57 58 57 57 57 58 59 58 56 55 54 53 52 50 48 45 43 41 39 37 35 34 33 32 30 28 27 27 28 27 25 24 24 22 21 22 23 21 19 20 20 18
32 32 32 31 31 30 29 28 27 26 26 25 26 27 27 27 27 27 28 29 30 29 29 30 33 36 38 40 41 43 46 48 49 51 52 53 54 54 54 55 56 57 58 58 58 58 58 58 59 59 58 57 56 55 53 52 51 49 47 45 43 41 39 37 36 35 34 32 30 29 29 29 28 26 25 24 22 21 21 22 21 19 19 19 16
31 32 31 31 31 30 30 29 28 28 27 26 26 26 27 27 28 27 27 27 29 30 30 30 31 34 37 40 42 44 46 48 49 50 52 53 53 54 54 55 56 57 58 59 59 59 59 59 59 59 59 58 57 56 55 53 52 50 48 46 44 43 42 40 39 37 36 34 32 31 30 29 28 27 26 24 22 21 21 21 21 19 19 20 16
32 31 31 31 31 31 31 31 30 29 28 27 27 27 27 27 27 28 28 27 27 28 29 30 30 32 35 38 41 44 46 48 49 50 51 52 53 54 54 55 55 57 59 60 60 60 59 59 59 59 59 59 58 57 56 55 53 50 48 45 43 42 42 41 40 38 36 34 33 31 30 28 27 26 26 25 23 22 21 20 20 19 20 20 17
33 33 32 32 32 32 32 32 32 31 30 29 28 28 28 28 28 28 28 28 28 28 28 29 29 30 32 36 40 43 45 47 48 49 50 51 52 53 54 55 55 56 58 59 60 60 59 59 58 58 59 59 59 58 57 56 54 51 48 46 44 42 41 40 39 38 36 35 33 31 29 28 27 27 27 25 23 22 21 20 20 20 21 20 18
32 34 34 34 34 33 33 33 33 32 32 31 30 29 29 28 28 29 28 28 28 29 29 29 29 28 29 33 37 40 43 44 46 48 49 50 51 52 53 54 56 56 57 58 59 59 59 59 58 58 58 59 59 59 59 57 55 52 49 46 45 43 42 40 40 38 35 34 33 31 29 28 27 27 26 25 24 22 22 20 20 22 22 20 18
31 33 34 34 35 35 35 35 35 35 34 33 33 32 31 30 29 29 29 29 29 29 29 29 29 28 28 30 33 37 40 42 44 46 48 49 50 51 51 53 55 56 56 57 58 58 58 58 59 58 58 58 59 60 60 58 56 54 50 48 46 45 43 42 40 38 36 36 34 31 30 28 28 27 26 25 24 23 22 21 21 22 22 20 18
32 33 33 34 35 35 36 37 37 37 37 36 36 35 34 33 32 31 31 30 30 30 30 31 30 29 28 28 30 34 36 38 41 44 46 48 48 49 50 51 53 55 57 57 57 57 57 57 58 57 57 57 57 59 60 59 58 55 52 50 48 46 44 42 40 39 38 36 34 32 30 29 28 27 25 24 24 23 23 23 22 21 20 19 18
33 33 34 34 35 35 36 37 38 39 39 39 39 38 37 36 35 34 33 33 32 31 32 32 32 32 30 28 29 32 33 35 38 41 43 45 46 47 49 50 52 54 56 56 57 57 56 57 57 56 56 56 56 57 58 58 58 56 53 51 49 47 45 42 41 39 38 36 34 32 30 28 28 27 25 24 24 24 24 23 21 20 20 19 18
33 34 35 35 36 36 37 38 39 40 40 40 40 40 40 40 39 37 36 35 35 34 34 34 34 33 33 31 30 31 31 31 35 39 41 42 43 45 47 49 51 53 54 55 56 56 56 56 56 56 55 55 54 54 56 57 57 56 53 52 50 48 45 43 41 39 38 36 34 31 29 29 28 26 24 23 24 25 25 22 20 19 20 20 18
33 35 35 36 36 37 37 39 40 41 42 42 42 42 42 42 42 41 39 38 37 35 35 36 35 35 35 33 31 31 31 30 31 35 39 40 42 43 45 47 49 51 52 54 55 55 55 56 55 55 54 53 52 52 54 55 56 55 54 52 49 47 46 44 42 40 38 36 33 31 29 29 27 25 24 24 24 25 24 21 20 20 20 19 19
32 34 35 36 36 37 37 38 40 41 42 43 44 44 44 44 44 43 43 42 41 38 37 37 37 36 36 35 34 32 31 30 29 32 35 38 40 42 42 45 48 50 51 52 53 54 54 55 54 54 53 51 51 51 52 53 54 54 53 51 49 49 47 44 41 40 38 36 34 32 31 30 29 28 27 24 23 23 22 21 21 21 20 19 18
33 33 34 35 36 36 37 38 39 40 42 43 45 45 46 46 46 46 46 45 44 43 41 39 39 37 36 36 35 34 32 31 29 30 32 35 38 40 42 44 47 49 50 51 52 52 53 54 54 52 51 50 49 49 49 50 51 53 53 52 51 49 46 41 39 38 37 35 34 33 33 32 30 28 24 22 21 22 22 22 21 20 20 19 18
38 37 37 37 37 37 37 38 39 40 41 43 45 46 46 47 48 49 49 47 47 46 45 44 43 41 39 37 36 35 34 32 30 29 30 32 36 38 42 44 45 46 48 49 50 51 52 52 52 51 49 49 47 46 46 47 49 51 51 50 49 46 42 39 38 37 36 34 34 34 33 31 28 24 22 21 21 22 22 22 21 20 19 19 19
43 43 43 42 41 41 40 40 41 41 42 43 45 47 47 48 49 50 50 50 50 49 48 46 45 44 43 41 39 37 36 34 32 30 28 29 33 36 40 44 44 44 46 47 48 50 50 50 50 49 47 46 45 44 44 47 49 50 49 47 45 42 39 38 37 37 36 34 34 34 33 30 26 23 22 22 22 22 22 21 20 20 20 20 20
46 47 48 48 47 46 45 45 44 44 44 44 46 48 49 50 50 50 50 52 52 51 50 49 48 47 46 44 42 40 38 36 35 33 30 28 30 34 38 42 44 44 46 47 47 47 48 48 47 46 45 43 42 42 44 46 48 49 47 44 42 39 38 37 37 36 35 33 34 34 32 28 25 23 23 23 23 22 21 20 19 19 19 20 20
49 51 51 51 51 50 49 49 49 48 48 48 48 50 51 52 52 52 52 52 53 53 52 51 50 49 48 46 45 42 41 38 36 35 33 30 30 31 34 40 43 43 44 46 46 45 45 45 44 42 41 40 39 41 43 43 44 47 46 42 40 39 39 39 37 35 33 33 34 33 30 26 24 23 23 22 21 21 20 20 20 19 20 20 20
52 53 54 54 54 54 54 54 53 52 51 51 51 51 52 53 54 55 54 54 54 54 54 53 52 51 50 49 47 45 43 41 38 36 36 34 32 31 32 36 41 43 43 43 45 45 44 44 41 38 37 36 37 40 41 39 39 42 42 39 39 41 41 39 36 34 34 35 34 31 27 24 23 22 22 21 20 21 21 20 20 19 20 21 20
54 55 56 57 57 57 58 58 57 56 56 55 54 54 53 54 55 55 55 55 54 54 54 53 52 52 51 50 49 46 45 43 41 39 37 35 34 32 31 34 39 43 43 41 42 42 42 41 39 37 36 37 38 40 41 39 36 36 36 37 39 40 39 37 35 35 35 34 31 28 25 23 22 22 22 21 21 21 21 20 20 19 20 21 21
56 58 60 60 60 61 61 61 61 61 60 58 57 57 56 55 54 54 55 55 54 54 54 53 52 51 51 51 49 47 45 44 43 41 38 35 34 34 33 34 37 40 40 40 40 41 39 38 37 36 36 37 38 40 43 43 39 36 35 38 39 38 36 35 34 34 32 30 27 26 24 24 23 23 22 22 21 22 22 21 20 19 20 21 22
58 60 62 63 63 63 63 63 63 63 62 61 60 59 58 57 55 55 55 54 52 52 52 51 51 51 51 50 49 46 45 45 44 42 38 34 33 34 35 35 37 40 41 40 39 39 38 35 34 35 35 35 36 38 42 44 43 40 39 40 40 38 36 35 34 31 29 27 27 27 26 25 24 23 23 23 22 21 21 20 20 20 20 21 22
60 62 63 64 64 64 63 62 62 62 62 62 61 60 59 57 56 57 57 55 53 52 51 50 52 51 49 49 48 46 46 46 44 40 36 33 32 33 35 35 37 42 44 43 39 38 38 36 36 37 37 38 39 40 42 44 45 43 41 40 39 39 38 36 34 32 30 29 29 28 26 25 25 24 23 22 21 20 20 20 19 20 20 20 22
60 63 64 63 63 62 61 61 60 59 59 60 60 61 61 58 55 55 57 56 53 50 47 48 50 49 46 47 47 46 45 45 41 37 34 32 32 31 32 33 35 40 44 44 41 39 40 40 40 41 41 43 44 45 45 46 47 46 44 41 39 38 37 36 34 33 32 31 29 28 27 26 25 24 22 21 20 19 19 19 19 19 19 20 21
58 62 62 61 59 57 56 57 57 56 56 55 55 55 57 58 57 55 54 53 52 49 46 46 47 44 42 43 44 43 42 41 39 37 35 33 33 32 32 31 31 36 42 44 43 42 43 44 44 44 44 46 47 47 48 48 49 49 47 44 41 39 37 35 34 33 32 30 28 28 27 26 24 23 21 20 19 19 18 18 18 18 18 19 20
53 56 56 54 53 51 50 51 52 52 51 50 49 48 48 51 52 51 48 43 41 40 40 40 41 40 39 40 40 40 40 39 37 36 35 33 33 35 34 31 29 34 41 45 46 46 46 46 47 46 47 48 49 48 48 49 49 50 48 45 42 39 37 36 34 32 30 29 28 28 27 24 22 21 20 19 19 18 17 17 16 17 18 19 19
46 48 48 48 48 46 44 43 44 43 42 43 42 38 35 35 37 39 39 36 32 31 31 33 35 36 37 37 37 38 38 37 36 34 33 32 32 34 34 32 29 32 40 45 48 50 49 48 48 48 48 49 49 49 49 49 49 49 46 43 40 39 38 37 34 31 30 29 28 27 25 22 20 19 19 19 18 17 16 15 15 16 17 18 19
43 44 44 44 44 43 39 36 35 35 35 36 35 33 33 34 36 38 42 42 40 39 38 36 34 34 34 35 35 36 35 35 36 35 32 30 30 31 31 30 28 32 41 47 50 51 50 49 49 49 48 48 48 50 51 51 50 48 45 42 40 40 39 37 34 31 30 29 27 25 22 20 19 19 19 18 17 15 15 14 14 15 16 18 20
43 44 43 42 42 43 41 40 39 38 38 40 41 41 42 43 45 47 48 47 44 42 40 37 32 30 30 31 32 33 33 32 35 36 33 30 28 26 27 29 31 36 44 48 49 50 50 50 50 49 48 47 47 48 50 51 51 49 46 43 42 41 38 35 33 31 30 27 25 23 20 19 19 19 18 17 15 14 14 14 14 15 16 18 20
44 44 44 43 43 45 45 45 44 44 44 44 43 42 41 41 42 43 44 44 43 42 41 39 34 30 29 28 28 30 31 30 31 34 34 30 26 24 28 33 36 40 45 49 50 50 50 50 50 49 48 47 45 46 48 50 50 48 45 43 41 40 37 34 32 30 28 25 23 21 20 19 19 18 16 15 14 13 14 14 14 15 17 18 20
43 44 45 45 44 44 44 42 41 40 39 39 38 37 36 36 35 33 34 36 37 37 37 36 33 31 31 29 26 26 29 28 28 31 33 30 25 25 31 35 37 40 44 47 49 49 49 49 50 49 48 46 44 44 45 47 47 45 43 41 39 37 34 31 29 27 25 23 21 20 19 19 18 17 15 14 13 13 13 14 14 16 17 18 20
42 43 44 43 42 41 41 40 38 36 35 35 34 34 33 32 32 32 34 36 35 34 33 32 31 32 33 31 26 24 26 27 27 29 31 30 27 28 32 36 38 39 42 46 48 49 48 49 49 48 47 45 42 40 42 43 44 42 41 39 37 34 32 30 29 27 24 22 20 20 19 18 17 16 14 13 13 13 13 14 15 17 18 18 20
40 39 39 39 38 38 38 37 35 34 33 32 31 31 31 30 31 32 32 33 32 32 33 33 32 32 33 32 29 27 26 27 29 31 33 32 30 30 33 36 39 39 41 45 48 48 48 49 48 47 45 42 39 37 38 39 39 39 38 37 36 34 33 31 28 25 23 22 21 20 18 17 16 15 14 13 13 13 14 14 15 17 19 19 19
36 35 35 34 34 35 35 33 32 32 32 32 31 31 31 33 34 35 35 34 34 32 31 31 32 32 31 31 31 30 29 28 30 34 36 35 34 32 33 36 39 40 42 44 47 48 49 48 46 43 41 39 36 35 35 35 36 36 35 35 34 33 31 28 25 24 23 22 20 19 18 17 16 14 13 13 13 13 14 15 16 17 19 19 19
33 33 33 32 32 33 34 33 34 34 35 35 35 35 35 36 36 35 35 36 37 36 33 31 31 31 31 31 30 30 29 28 29 33 36 36 35 33 33 35 38 40 41 43 47 49 48 45 41 39 38 36 34 32 32 32 34 35 34 34 32 30 28 26 25 23 22 21 20 18 17 16 14 13 12 12 13 14 15 16 17 17 18 18 18
32 32 32 32 31 32 33 33 33 33 33 34 33 33 33 33 33 31 30 30 31 33 33 32 30 29 29 29 28 26 26 27 27 30 34 35 34 33 33 35 37 38 40 42 44 44 43 40 36 34 34 34 32 30 30 32 33 34 33 32 30 28 26 25 24 22 21 20 19 17 16 14 13 12 12 12 14 15 15 16 17 18 18 18 19
31 31 31 31 31 32 32 32 32 32 32 32 31 30 30 30 29 28 27 26 26 27 28 29 29 28 27 26 24 22 23 25 27 29 32 33 34 33 33 33 34 34 35 37 38 38 37 35 32 29 29 29 28 27 29 31 32 32 31 29 27 26 25 23 22 21 20 19 17 16 14 13 12 12 12 13 14 15 15 16 17 18 18 18 19
29 30 30 30 30 31 31 31 31 31 30 30 30 29 28 27 25 24 24 25 24 24 24 25 26 26 25 22 19 19 22 26 28 29 30 31 31 31 30 30 29 28 29 31 32 32 32 30 28 27 26 26 26 27 28 28 29 28 28 27 25 24 23 22 20 19 18 17 16 14 13 12 12 12 13 13 14 15 16 17 17 18 18 19 21
28 28 28 28 29 29 29 29 29 29 29 29 28 26 25 23 23 22 21 22 24 24 23 23 22 22 21 19 16 18 21 23 25 27 27 27 28 28 27 26 25 24 25 26 28 28 27 26 26 26 26 26 28 28 28 27 27 26 25 23 22 22 21 19 18 17 16 15 14 13 12 12 12 12 13 13 14 15 16 17 18 18 18 20 22
25 25 25 26 26 26 26 25 25 25 25 24 24 23 21 20 20 19 18 19 20 21 21 20 18 18 17 15 15 16 18 20 22 24 24 25 25 24 23 23 22 22 23 25 26 25 23 22 23 24 25 27 29 29 28 27 26 24 23 21 20 19 18 16 16 15 14 13 13 12 12 12 12 12 13 13 14 15 16 17 18 18 19 21 24
23 23 23 23 23 22 21 20 20 19 19 18 17 18 17 16 15 15 15 15 15 15 15 15 14 14 14 13 14 15 17 18 20 21 21 21 21 20 20 20 20 22 24 25 24 22 20 20 21 23 26 28 28 28 27 25 23 22 20 19 18 16 15 14 14 13 12 11 11 11 11 11 12 12 13 14 14 15 17 17 18 19 21 23 26
21 21 21 20 20 20 19 18 16 15 14 12 11 10 10 9 9 9 9 9 9 9 10 10 10 11 12 12 13 15 16 17 18 18 17 17 17 18 19 20 21 23 23 22 21 20 20 22 24 25 26 26 25 24 23 22 20 19 18 16 15 14 13 12 11 11 11 10 10 11 11 11 11 12 13 14 14 16 17 17 18 19 23 26 27
21 20 20 20 19 19 19 18 16 14 12 10 8 6 5 4 3 3 4 4 5 5 6 6 7 8 9 10 12 13 14 14 15 15 15 15 18 20 21 22 22 22 21 20 21 23 25 27 27 26 25 24 22 21 20 19 17 16 15 13 12 11 10 10 10 10 9 9 10 10 11 11 11 12 13 14 15 16 17 17 18 21 25 27 27
23 22 21 21 20 19 18 17 16 15 13 11 9 7 6 4 3 1 1 1 2 3 4 4 5 6 8 9 11 12 12 12 13 14 15 17 21 23 23 22 22 21 20 22 25 27 28 28 27 25 23 21 20 19 17 16 14 13 12 10 10 9 8 8 9 8 8 9 9 10 10 11 12 12 13 14 15 16 17 17 19 24 27 26 26
26 25 24 23 22 21 20 19 18 17 16 14 12 10 9 7 6 5 4 3 3 3 3 4 5 6 7 8 9 10 12 14 16 17 19 22 24 24 24 23 23 23 24 26 28 28 27 25 24 22 21 19 17 16 15 13 12 11 9 8 8 7 7 7 7 8 8 8 9 9 10 11 12 13 14 15 16 16 16 18 22 25 25 25 25
Wind_Direction
1 359 358 354 346 340 331 314 301 295 291 287 284 282 280 278 277 275 272 271 271 271 271 270 269 267 265 263 260 258 256 254 252 250 248 247 245 243 242 240 239 239 238 237 237 237 237 237 237 237 236 236 237 237 237 237 238 239 239 240 241 243 244 244 246 252 259 264 268 271 273 273 273 275 277 281 286 292 296 299 300 302 304 307 312
2 359 357 355 351 347 339 326 310 299 295 293 291 291 289 287 286 283 279 276 275 274 273 272 271 270 267 265 262 259 257 255 254 252 250 249 247 244 242 241 239 238 237 236 236 236 236 236 236 236 236 236 236 237 237 237 238 239 239 240 241 244 244 244 244 246 254 261 264 266 267 266 267 269 271 272 276 281 286 288 290 293 295 298 302
5 2 358 355 353 349 343 335 324 314 306 300 296 294 292 290 288 286 284 283 280 278 276 274 273 271 269 266 263 260 258 256 255 253 252 251 249 247 245 242 240 238 237 236 236 235 235 235 235 235 235 235 235 235 235 236 238 238 239 240 241 243 243 243 243 244 249 255 257 259 261 262 261 260 263 265 265 269 273 277 282 286 290 294 298
6 2 360 356 353 350 346 340 333 324 316 307 300 295 290 287 285 285 285 285 284 283 281 278 275 272 269 267 264 262 260 258 256 255 253 252 251 250 248 246 243 240 239 238 237 236 236 236 236 235 235 235 235 235 235 236 237 237 238 238 240 241 242 242 243 244 245 248 252 256 257 258 257 256 259 261 262 265 269 273 277 280 285 290 294
4 2 359 356 353 351 349 345 340 333 325 315 307 301 295 290 287 286 286 286 286 285 283 280 276 274 271 269 267 265 263 261 259 257 255 253 251 251 250 249 247 244 241 240 238 238 237 237 237 236 235 235 235 234 235 236 236 237 237 238 239 240 241 242 243 244 244 244 249 254 255 254 256 258 259 261 264 267 270 273 276 278 281 285 288
0 0 359 356 355 353 351 349 346 341 334 327 318 309 301 295 291 289 288 287 287 286 284 281 279 277 275 272 270 267 264 262 261 259 257 254 252 251 250 250 248 246 244 242 240 239 239 239 238 238 237 236 236 236 236 236 236 237 237 237 239 240 240 240 242 244 244 244 246 250 253 254 255 256 259 263 266 270 273 274 276 278 280 281 283
356 356 356 356 355 354 353 352 350 346 342 337 331 324 315 305 296 291 288 286 285 286 286 284 282 281 280 276 272 269 265 263 262 260 258 256 253 251 250 250 249 247 245 243 241 240 240 240 239 239 238 238 238 237 237 237 237 237 237 238 238 238 238 239 241 242 243 244 244 246 250 252 253 254 257 261 264 268 273 275 276 278 280 281 281
353 353 353 353 353 354 353 351 348 346 344 341 338 334 329 321 309 298 290 285 283 284 285 285 284 282 280 278 275 271 267 264 263 261 259 256 254 252 250 249 250 249 246 244 242 241 240 239 239 240 240 239 239 239 238 238 237 236 236 236 236 237 237 238 239 241 242 243 243 244 245 248 250 251 253 257 262 266 271 275 277 279 280 282 285
349 349 349 349 349 349 349 349 348 345 342 340 340 339 336 332 325 313 301 291 286 285 284 284 283 282 280 278 275 271 268 266 264 262 260 258 256 254 251 250 249 249 248 246 243 241 240 239 238 239 240 239 239 240 239 239 239 237 236 235 234 234 235 236 238 239 240 240 240 240 241 243 246 249 251 254 258 262 268 273 277 280 280 281 286
344 345 345 346 346 344 343 343 344 344 342 340 339 338 338 337 336 331 321 306 295 290 287 285 284 284 283 280 277 272 269 267 265 263 262 260 258 256 254 251 249 248 248 247 245 243 241 239 239 238 238 238 238 238 239 238 238 238 238 237 236 235 234 234 236 238 239 240 240 240 240 240 244 247 249 250 253 258 264 270 276 280 280 281 287
342 342 342 342 342 341 340 339 339 340 340 339 338 336 335 334 335 336 334 326 313 299 291 287 286 287 285 283 279 275 272 270 268 266 264 262 259 257 255 253 250 249 248 248 247 245 243 241 240 238 237 237 236 236 237 237 236 236 236 236 237 237 237 236 237 238 238 239 239 239 239 241 243 244 245 248 253 257 262 266 272 276 277 281 289
338 338 338 339 338 338 338 337 338 338 337 336 335 334 333 331 331 331 332 333 329 316 303 293 288 288 288 285 281 277 276 274 271 268 266 264 261 259 256 254 252 249 249 248 248 247 245 243 241 239 238 237 236 235 235 234 234 233 233 233 232 234 235 237 238 239 239 240 240 239 240 242 242 242 244 250 255 258 261 264 269 272 274 279 289
333 334 335 336 336 336 335 335 335 336 336 335 333 332 331 329 329 329 327 328 330 328 320 308 296 290 287 286 283 281 279 276 273 270 267 264 262 259 256 254 252 250 250 249 248 248 247 245 243 241 239 237 235 234 233 233 232 231 230 230 230 230 231 233 235 237 239 241 241 240 240 242 242 243 247 252 256 258 261 264 268 270 272 279 289
329 330 331 332 333 334 334 334 333 333 334 334 332 331 329 327 326 326 324 324 324 325 326 321 312 301 291 287 285 283 281 278 274 271 268 265 262 259 256 254 252 252 251 250 249 248 248 247 245 243 240 237 235 233 232 231 231 229 228 228 228 229 229 230 232 234 236 237 237 238 240 241 242 243 247 252 256 259 262 264 266 269 273 280 288
326 326 326 327 329 331 332 333 333 332 332 331 330 330 328 326 324 323 321 321 320 319 320 321 320 313 302 292 287 284 283 280 276 273 269 266 262 259 256 254 252 251 251 249 248 248 248 248 247 246 243 241 238 235 233 231 230 229 228 228 229 229 229 231 233 235 236 237 236 236 238 240 241 242 245 250 255 258 260 261 264 268 273 279 286
321 322 322 323 324 326 328 329 329 330 330 330 329 328 327 325 324 323 320 318 317 317 316 315 316 316 311 301 290 285 283 282 279 274 270 267 263 258 255 253 251 250 250 249 249 248 248 247 247 246 244 243 240 237 234 232 231 230 229 229 230 230 230 232 235 236 236 236 236 236 237 238 240 241 243 247 251 254 256 260 264 269 273 279 285
316 316 317 318 319 321 323 324 324 325 326 326 326 326 325 324 324 323 320 317 315 314 313 312 310 311 312 308 300 291 286 283 281 276 271 267 263 258 254 252 251 251 250 250 249 248 248 247 246 245 244 243 241 237 234 232 230 229 229 229 229 229 230 232 233 233 233 234 235 235 234 235 238 240 242 243 247 251 255 260 265 268 272 279 284
311 311 312 314 315 317 319 320 320 320 321 321 322 322 321 321 321 321 319 316 314 312 310 308 307 307 307 308 306 299 291 286 282 278 274 268 263 259 255 253 253 252 251 250 249 247 247 246 245 244 244 243 241 238 235 232 229 229 229 229 229 230 231 230 229 230 231 231 232 232 232 234 236 237 237 238 243 249 255 258 262 265 269 276 284
305 305 307 309 311 312 315 317 317 318 318 318 318 318 317 317 317 317 316 315 313 310 307 305 303 303 303 304 305 302 297 290 283 278 275 269 264 259 255 252 253 252 251 249 248 246 245 245 245 243 243 242 240 237 235 233 230 230 230 231 231 232 232 231 229 229 230 229 230 231 231 231 231 233 236 238 242 248 252 255 258 262 269 275 283
299 299 301 303 305 307 310 311 313 314 315 316 316 315 314 314 313 312 312 312 311 309 306 303 301 299 299 299 299 300 299 294 286 279 274 270 266 261 255 252 252 251 250 248 247 247 246 245 244 242 240 239 238 236 236 234 231 230 231 232 234 234 233 231 229 229 229 229 231 231 231 232 232 233 235 237 240 245 249 254 258 263 269 275 281
300 300 300 300 300 302 304 306 308 310 311 312 313 312 311 311 310 309 309 309 308 307 305 303 300 298 297 296 295 295 297 295 290 281 275 271 268 262 256 254 253 251 250 249 249 249 247 245 244 241 239 238 236 235 234 233 231 231 232 234 235 235 232 229 227 226 227 228 231 232 233 233 232 230 231 233 238 243 247 253 258 262 268 275 280
300 301 300 300 300 300 301 302 304 306 307 309 309 308 308 308 307 307 306 305 305 304 303 302 299 297 296 295 294 292 293 294 292 286 278 271 267 261 256 255 256 253 251 250 250 248 247 246 245 243 240 238 237 235 233 232 232 232 232 232 232 230 228 228 226 225 226 227 230 232 232 231 228 226 228 232 236 241 245 250 256 262 269 276 280
297 298 298 298 299 299 300 300 301 302 303 305 306 306 306 306 305 305 304 303 302 301 301 301 299 296 294 293 292 291 290 291 292 291 285 274 266 260 256 254 256 254 252 251 250 248 248 247 246 243 241 240 238 235 231 229 230 231 230 228 226 225 226 226 224 224 226 227 229 230 229 227 224 223 227 231 234 239 244 249 256 263 270 275 280
295 295 295 296 296 297 298 298 299 300 300 302 303 303 303 303 303 303 302 302 301 299 298 298 297 295 293 290 289 289 289 289 290 291 290 282 271 262 255 252 253 253 251 251 251 249 248 247 244 243 242 241 238 235 228 223 225 228 227 224 222 222 223 222 220 222 224 226 228 228 225 222 221 222 227 230 234 240 245 250 257 263 269 274 279
293 293 293 294 295 296 296 296 297 297 298 299 299 299 300 300 300 300 301 300 298 297 296 295 295 294 292 289 287 287 287 288 287 287 288 286 278 267 255 247 247 249 249 249 250 249 248 247 246 245 244 240 234 229 221 214 219 226 223 219 220 220 219 218 217 219 223 225 226 225 221 218 220 223 227 231 235 241 247 252 258 263 269 273 277
293 293 294 294 295 295 295 295 295 295 295 296 296 296 297 297 297 298 298 297 296 295 294 293 292 291 290 288 286 286 286 285 284 283 283 283 279 270 254 242 240 244 247 248 248 247 246 245 244 242 239 234 228 222 213 205 211 222 221 216 216 217 216 217 217 219 223 225 223 220 217 218 221 224 228 231 236 242 248 253 258 263 268 273 276
294 294 294 294 294 294 294 294 294 294 294 294 294 294 294 294 294 294 294 293 292 291 290 289 287 287 287 287 285 284 284 282 280 278 278 279 279 273 258 241 232 235 241 243 242 242 242 242 242 239 235 230 224 221 214 205 204 211 213 211 214 217 218 220 222 222 222 220 216 215 216 220 223 224 227 232 236 243 249 254 259 264 267 272 276
293 293 292 293 292 292 293 293 292 293 292 292 293 292 292 292 291 290 290 289 287 286 285 284 283 282 283 283 282 281 281 278 275 274 275 278 280 275 263 245 228 226 232 235 235 237 239 238 236 232 226 219 212 211 209 203 200 203 207 209 214 219 220 220 219 218 216 213 213 216 218 220 222 224 227 232 237 244 251 256 261 265 269 275 278
292 291 290 290 290 290 291 291 292 292 292 291 291 290 289 289 288 287 286 285 284 282 280 279 280 280 279 277 276 275 276 276 275 275 275 278 278 274 268 254 235 225 228 231 230 230 230 229 225 219 213 207 203 203 203 200 199 202 206 210 214 216 218 218 216 213 212 214 215 217 217 219 221 224 228 232 238 245 251 258 263 268 273 277 280
291 290 289 290 290 291 291 291 291 291 291 290 290 289 287 286 285 285 285 284 282 280 276 275 277 277 274 273 273 271 271 274 275 273 271 272 273 271 268 261 243 228 225 228 227 225 224 220 217 213 207 202 202 203 203 203 203 203 205 209 213 215 217 216 212 210 211 212 212 213 216 218 221 225 229 233 239 246 252 258 264 269 274 278 282
290 290 290 290 291 291 292 291 290 290 290 290 290 290 289 287 284 283 283 282 281 279 274 272 272 270 266 267 269 269 269 271 270 267 265 266 268 267 264 259 245 228 224 223 221 220 220 216 212 210 206 203 204 205 205 206 207 206 206 207 211 215 216 214 211 211 210 208 208 210 215 218 221 226 231 235 240 246 252 259 265 269 275 281 285
290 290 291 291 291 292 292 292 292 292 291 290 291 292 293 291 288 286 284 283 281 279 274 270 268 264 259 258 261 263 266 267 267 265 263 263 264 264 261 257 243 227 224 223 219 216 216 214 211 208 206 205 205 206 207 208 208 207 207 208 209 212 214 213 214 213 211 208 208 210 214 218 222 228 233 237 243 247 251 258 265 271 278 284 289
292 292 293 294 294 295 294 293 293 292 291 292 295 295 291 287 285 284 282 278 273 270 267 264 263 260 257 255 254 256 260 263 264 265 263 261 262 261 258 254 240 221 218 220 218 215 214 212 211 210 208 207 207 208 209 210 210 210 211 211 212 213 212 213 213 211 208 207 209 211 214 219 224 230 235 241 246 250 254 261 269 275 282 288 293
296 295 295 295 294 292 289 286 284 284 283 285 285 280 272 269 270 273 275 276 276 275 273 271 265 258 255 255 253 252 254 255 257 260 261 259 260 258 253 248 235 218 214 217 216 214 212 211 210 210 210 210 209 210 210 211 212 213 214 214 214 214 212 211 210 207 206 206 208 210 215 220 226 233 239 244 249 255 260 268 275 281 287 293 298
297 295 294 293 290 287 286 283 281 280 280 279 278 275 272 271 269 269 271 274 277 278 278 277 272 261 253 253 252 250 248 247 248 252 256 258 256 249 239 232 224 216 214 216 215 214 212 211 210 211 212 212 212 212 212 213 214 215 215 215 214 213 212 211 208 205 205 206 207 210 216 221 228 235 240 246 253 260 267 275 283 289 294 299 301
296 295 293 291 288 287 286 285 284 283 282 281 281 281 280 278 276 274 273 273 273 273 271 271 272 268 262 259 256 251 247 244 242 243 247 252 249 235 223 220 219 215 213 212 213 214 213 213 214 215 214 213 213 214 215 215 215 216 216 215 213 211 209 207 205 204 204 204 206 211 216 223 230 236 241 248 257 264 273 282 289 295 300 303 303
295 293 291 290 289 288 287 286 285 284 283 282 282 282 281 278 276 273 271 273 276 275 271 268 267 266 264 264 262 254 248 243 237 236 240 244 239 226 220 219 219 216 213 211 210 211 211 213 216 216 215 214 214 215 217 217 216 215 213 212 211 209 205 203 201 202 202 203 207 213 218 224 232 238 243 252 260 267 277 287 293 298 303 306 306
293 292 290 290 289 287 285 284 282 280 279 278 278 278 277 274 271 270 271 273 275 274 271 269 266 262 261 262 263 259 251 242 233 229 231 232 226 220 220 220 218 216 215 213 210 209 210 212 214 215 215 215 216 218 220 219 215 213 211 208 205 202 200 199 199 199 200 203 208 214 219 225 233 240 246 254 263 272 281 290 297 302 305 307 309
297 296 294 293 291 288 285 283 279 277 276 276 275 275 273 270 267 268 271 275 276 276 275 274 268 261 259 260 262 262 257 245 231 223 222 223 222 219 218 219 218 217 217 215 212 210 210 211 212 213 215 217 218 221 223 218 212 210 208 204 200 197 196 197 197 196 199 204 208 214 220 225 232 240 248 257 265 275 285 293 299 304 308 310 312
306 304 302 300 298 294 289 283 276 274 274 273 273 273 271 266 264 264 264 267 271 273 274 274 270 265 261 260 261 260 255 244 231 222 219 221 221 219 218 219 219 219 218 216 213 210 210 211 213 215 217 218 221 223 221 214 207 204 202 199 198 197 196 195 195 196 200 204 208 213 219 225 232 240 249 260 271 279 288 295 300 306 310 311 313
314 311 309 306 302 298 293 287 282 280 279 277 275 274 272 271 271 270 268 267 267 266 267 270 272 270 266 264 263 260 254 245 234 225 220 220 220 219 219 220 221 221 219 216 212 210 209 210 214 217 219 221 222 220 213 205 200 198 196 195 195 195 194 194 195 198 201 204 209 214 219 224 233 242 251 264 275 283 290 296 303 308 308 309 314
318 315 313 311 308 303 299 295 294 292 288 284 282 279 278 279 278 276 273 270 267 265 265 268 271 272 271 268 266 259 250 244 238 229 222 220 220 220 220 222 223 223 221 218 213 211 210 212 214 217 220 220 217 209 201 196 194 193 193 193 193 193 194 195 197 199 202 205 210 215 221 226 234 245 256 267 276 284 290 298 304 307 306 309 317
322 320 318 316 313 309 305 302 300 297 293 291 289 287 286 286 283 279 277 275 271 267 265 265 268 271 272 270 265 252 240 236 234 228 221 218 218 218 220 223 223 222 220 219 217 216 215 214 213 214 217 215 208 200 196 193 190 189 190 191 192 194 196 198 199 200 203 208 212 216 223 231 240 250 261 270 277 283 291 298 303 305 308 314 322
327 325 323 320 316 314 311 308 305 302 299 298 296 294 291 288 283 277 275 276 274 271 267 265 266 268 269 267 258 241 232 230 227 223 220 218 217 219 221 222 221 218 216 215 215 214 212 209 207 205 203 198 193 190 189 187 186 187 189 191 193 196 198 199 201 203 206 210 215 220 228 238 247 256 265 272 278 284 293 300 304 306 312 320 326
332 329 327 325 322 319 317 314 311 308 304 300 297 294 292 289 284 280 276 275 274 272 269 267 265 263 261 258 245 233 229 227 222 219 218 218 218 220 221 220 218 215 210 206 204 203 201 201 203 200 193 186 182 181 180 179 181 184 188 191 195 198 200 201 204 207 210 214 220 227 234 243 252 261 268 275 281 288 296 301 304 308 316 324 327
339 337 334 332 329 327 324 321 319 315 310 305 300 297 296 293 289 288 286 281 276 271 266 263 259 252 248 244 236 229 227 222 217 215 217 219 219 219 218 214 208 202 196 192 191 191 191 194 199 198 190 182 178 177 176 177 179 181 185 190 194 198 202 204 207 211 215 220 226 234 241 249 258 266 273 278 284 291 297 300 304 311 321 326 325
347 346 343 340 337 334 332 330 327 324 320 315 307 303 302 300 295 291 286 279 271 263 257 252 247 241 236 232 227 223 218 213 211 212 216 217 216 212 208 201 192 185 181 179 179 181 183 184 187 187 182 177 175 174 175 176 177 180 185 190 195 199 203 207 211 216 221 227 235 242 249 258 265 271 278 283 287 292 298 301 307 318 325 323 319
356 355 354 352 349 348 348 347 346 343 342 338 327 313 304 296 287 278 270 262 255 250 246 241 235 230 226 221 217 214 210 206 205 207 209 208 200 191 185 181 175 172 169 167 167 170 172 171 172 173 172 171 171 172 172 173 176 180 184 189 194 200 205 211 218 224 229 236 244 250 256 266 272 276 281 285 288 292 299 307 315 321 321 316 313
7 6 6 6 5 4 3 3 4 5 5 3 359 351 338 315 284 259 247 243 236 229 228 226 220 218 218 215 209 205 201 198 197 197 194 186 176 169 167 166 166 166 167 166 166 166 166 165 164 165 165 166 167 168 169 171 174 177 182 188 194 201 208 216 225 233 238 244 252 259 265 273 279 280 281 284 290 298 308 315 318 317 313 310 309
19 18 18 18 19 19 18 17 19 21 22 24 26 29 31 30 33 64 125 176 181 178 185 194 196 199 204 203 198 193 190 186 182 178 173 166 160 157 158 159 159 160 163 164 162 161 161 161 160 161 162 163 164 165 166 169 172 176 181 188 194 202 213 223 231 240 247 251 259 268 273 278 281 281 283 289 298 307 314 314 310 309 308 307 307
30 29 29 28 29 29 29 29 30 30 30 32 34 37 42 48 55 65 76 86 101 121 137 154 165 173 178 180 179 176 173 167 161 157 154 152 151 150 152 153 153 154 156 157 155 155 155 155 156 157 158 160 161 163 165 167 171 176 183 190 197 208 220 229 237 247 253 259 268 274 276 280 283 286 292 300 306 309 310 307 304 305 307 308 308